DateTime,F1_A11,F1_S11,BsB_S11,BsG_S11,BsR_S11,BbsB_S11,BbsG_S11,BbsR_S11,BaB_A11,BaG_A11,BaR_A11,T_S11,U_S11,P_S11,T1_A11
2016-12-14T00:00:00Z,0000380,21000600,,,,,,,,,,26.5,00.0,0633.2,34.7
2016-12-14T00:01:00Z,0000380,21000600,,,,,,,,,,26.6,00.0,0633.2,34.7
2016-12-14T00:02:00Z,0000380,21000600,,,,,,,,,,26.6,00.0,0633.2,34.7
2016-12-14T00:03:00Z,0000380,61000600,,,,,,,,,,26.6,00.0,0633.2,34.7
2016-12-14T00:04:00Z,0000380,41000600,0000.67,-000.19,0000.30,-000.30,0000.01,0000.13,-000.08,0000.06,0000.03,26.5,00.0,0634.2,34.6
2016-12-14T00:05:00Z,0000380,01000600,0000.68,-000.26,-000.33,0000.13,-000.06,-000.33,0000.10,0000.07,0000.12,26.5,00.0,0634.3,34.6
2016-12-14T00:06:00Z,0000380,01000600,0001.21,-000.24,0000.17,-000.18,0000.37,-000.21,-000.05,-000.05,-000.19,26.5,00.0,0634.3,34.6
2016-12-14T00:07:00Z,0000380,01000600,-000.09,0000.17,0000.06,-000.12,0000.06,0000.37,-000.08,0000.10,0000.06,26.4,00.0,0634.3,34.6
2016-12-14T00:08:00Z,0000380,01000600,-000.15,0000.16,-000.16,-000.29,-000.38,-000.36,0000.21,-000.05,-000.15,26.4,00.0,0634.3,34.6
2016-12-14T00:09:00Z,0000380,01000600,0000.62,0000.34,-000.28,-000.13,-000.29,-000.35,0000.10,0000.00,0000.25,26.4,00.0,0634.3,34.6
2016-12-14T00:10:00Z,0000380,01000600,0000.23,0000.05,-000.00,-000.30,-000.38,0000.19,-000.06,0000.09,-000.01,26.4,00.0,0634.3,34.6
2016-12-14T00:11:00Z,0000380,01000600,0000.09,0000.06,0000.43,0000.37,0000.09,-000.08,0000.02,-000.07,-000.13,26.4,00.0,0634.3,34.6
2016-12-14T00:12:00Z,0000380,01000600,0000.76,-000.52,-000.11,-000.87,0000.13,-000.23,0000.16,0000.05,0000.46,26.4,00.0,0634.3,34.6
2016-12-14T00:13:00Z,0000380,01000600,-000.47,0000.23,0000.59,-000.53,-000.37,0000.02,-000.07,0000.12,-000.17,26.5,00.0,0634.3,34.6
2016-12-14T00:14:00Z,0000380,01000600,0000.35,0000.34,0000.29,0000.01,-000.08,0000.12,-000.05,-000.10,-000.05,26.5,00.0,0634.3,34.7
2016-12-14T00:15:00Z,0000380,01000600,0001.10,0000.70,0000.04,0000.34,-000.43,-000.21,0000.05,0000.23,0000.05,26.5,00.0,0634.3,34.7
2016-12-14T00:16:00Z,0000380,01000600,0000.14,-000.01,-000.21,0000.02,-000.06,-000.35,0000.24,0000.04,0000.07,26.5,00.0,0634.3,34.7
2016-12-14T00:17:00Z,0000380,01000600,0000.52,0000.15,0000.31,0000.03,-000.41,-000.37,-000.23,-000.18,0000.00,26.5,00.0,0634.3,34.7
2016-12-14T00:18:00Z,0000380,01000600,-000.75,0000.37,-000.06,0000.82,-000.38,-000.23,0000.03,-000.00,-000.18,26.5,00.0,0634.3,34.7
2016-12-14T00:19:00Z,0000380,01000600,0000.72,-000.58,0000.13,-000.29,0000.17,-000.19,-000.01,0000.09,-000.06,26.5,00.0,0634.3,34.7
2016-12-14T00:20:00Z,0000380,01000600,0000.44,-000.29,-000.30,0000.08,0000.42,-000.14,0000.16,0000.02,0000.00,26.5,00.0,0634.3,34.6
2016-12-14T00:21:00Z,0000380,01000600,0000.21,0000.19,0000.13,0000.10,0000.17,0000.04,-000.13,-000.01,0000.16,26.4,00.0,0634.3,34.6
2016-12-14T00:22:00Z,0000380,01000600,-000.15,0000.27,-000.35,-000.24,0000.10,-000.10,0000.20,0000.11,0000.03,26.4,00.0,0634.3,34.6
2016-12-14T00:23:00Z,0000380,01000600,0000.55,0000.18,-000.16,0000.24,-000.23,-000.08,0000.08,0000.12,0000.35,26.4,00.0,0634.4,34.6
2016-12-14T00:24:00Z,0000380,01000600,0000.62,-000.05,-000.09,-000.42,-000.20,-000.03,-000.04,-000.02,-000.33,26.4,00.0,0634.3,34.6
2016-12-14T00:25:00Z,0000380,01000600,0000.45,0000.12,0000.03,-000.89,-000.34,-000.23,-000.04,-000.04,0000.08,26.3,00.0,0634.3,34.6
2016-12-14T00:26:00Z,0000380,01000600,0000.73,0000.39,0000.22,0000.12,-000.05,-000.10,0000.11,0000.07,-000.07,26.3,00.0,0634.3,34.6
2016-12-14T00:27:00Z,0000380,01000600,0000.32,0000.03,-000.11,-000.27,-000.08,-000.29,0000.18,-000.04,0000.08,26.4,00.0,0634.2,34.6
2016-12-14T00:28:00Z,0000380,01000600,0000.52,-000.12,-000.10,-000.54,0000.45,0000.19,0000.01,0000.08,0000.16,26.4,00.0,0634.2,34.7
2016-12-14T00:29:00Z,0000380,01000600,-000.06,-000.04,0000.38,-000.36,0000.32,-000.45,-000.08,0000.00,-000.02,26.4,00.0,0634.2,34.7
2016-12-14T00:30:00Z,0000380,01000600,0000.29,0000.02,-000.07,-000.49,0000.06,-000.16,0000.07,0000.15,-000.08,26.4,00.0,0634.2,34.7
2016-12-14T00:31:00Z,0000380,01000600,0001.39,0000.66,-000.25,0000.78,-000.02,-000.44,0000.00,0000.05,0000.23,26.4,00.0,0634.2,34.7
2016-12-14T00:32:00Z,0000380,01000600,0000.67,0000.01,-000.14,0000.16,0000.19,0000.29,0000.05,-000.10,-000.06,26.5,00.0,0634.2,34.7
2016-12-14T00:33:00Z,0000380,01000600,0000.88,0000.39,0000.06,0000.17,-000.04,-000.20,-000.07,0000.17,0000.16,26.4,00.0,0634.3,34.7
2016-12-14T00:34:00Z,0000380,01000600,0001.18,0000.62,-000.49,0000.94,0000.05,-000.10,-000.09,0000.04,-000.16,26.4,00.0,0634.3,34.7
2016-12-14T00:35:00Z,0000380,01000600,0000.50,-000.21,0000.12,0000.73,0000.23,-000.56,0000.19,-000.09,0000.22,26.4,00.0,0634.3,34.6
2016-12-14T00:36:00Z,0000380,01000600,0000.96,0000.38,0000.11,0000.13,0000.13,-000.68,-000.01,-000.07,-000.28,26.4,00.0,0634.3,34.6
2016-12-14T00:37:00Z,0000380,01000600,0000.16,-000.13,0000.38,-000.43,0000.02,-000.14,0000.06,0000.35,0000.06,26.4,00.0,0634.3,34.6
2016-12-14T00:38:00Z,0000380,01000600,0000.47,0000.33,-000.10,-000.01,-000.56,-000.27,-000.07,-000.13,-000.11,26.4,00.0,0634.3,34.6
2016-12-14T00:39:00Z,0000380,01000600,0000.21,-000.21,-000.26,0000.20,0000.05,-000.17,0000.13,-000.01,0000.32,26.4,00.0,0634.3,34.6
2016-12-14T00:40:00Z,0000380,01000600,-000.09,-000.06,-000.21,-000.82,0000.05,-000.25,0000.00,0000.10,-000.16,26.4,00.0,0634.3,34.6
2016-12-14T00:41:00Z,0000380,01000600,0000.14,-000.08,-000.31,0000.24,-000.19,0000.02,0000.16,-000.13,0000.09,26.4,00.0,0634.2,34.6
2016-12-14T00:42:00Z,0000380,01000600,0000.67,0000.36,-000.11,0000.02,0000.20,-000.37,0000.09,0000.18,0000.23,26.4,00.0,0634.2,34.7
2016-12-14T00:43:00Z,0000380,01000600,0000.24,-000.02,-000.50,0000.25,-000.11,-000.40,0000.13,-000.05,-000.06,26.4,00.0,0634.2,34.7
2016-12-14T00:44:00Z,0000380,01000600,0000.63,-000.33,-000.27,0000.31,0000.30,-000.26,-000.02,0000.08,0000.07,26.4,00.0,0634.2,34.7
2016-12-14T00:45:00Z,0000380,01000600,0000.88,0000.02,0000.23,0000.10,0000.02,0000.28,0000.08,0000.04,-000.36,26.5,00.0,0634.2,34.7
2016-12-14T00:46:00Z,0000380,01000600,0000.05,0000.03,-000.12,0000.15,0000.00,0000.05,-000.31,0000.15,0000.33,26.4,00.0,0634.2,34.7
2016-12-14T00:47:00Z,0000380,01000600,0000.62,0000.52,-000.08,0000.09,0000.48,0000.28,0000.19,-000.01,-000.10,26.5,00.0,0634.2,34.7
2016-12-14T00:48:00Z,0000380,01000600,0001.07,0000.23,0000.27,-000.17,-000.21,-000.17,0000.19,0000.01,0000.30,26.4,00.0,0634.2,34.6
2016-12-14T00:49:00Z,0000380,01000600,0000.27,0000.03,-000.17,-000.25,0000.06,-000.11,-000.01,0000.15,0000.14,26.4,00.0,0634.2,34.6
2016-12-14T00:50:00Z,0000380,01000600,0000.38,-000.53,0000.17,-000.52,0000.07,0000.08,0000.01,-000.04,-000.51,26.4,00.0,0634.2,34.6
2016-12-14T00:51:00Z,0000380,01000600,0000.47,0000.24,0000.20,-000.37,0000.10,0000.10,-000.03,0000.13,0000.07,26.4,00.0,0634.2,34.6
2016-12-14T00:52:00Z,0000380,01000600,0000.46,0000.05,0000.05,0000.25,0000.13,0000.10,0000.30,0000.09,0000.24,26.4,00.0,0634.2,34.6
2016-12-14T00:53:00Z,0000380,01000600,0000.08,0000.27,-000.24,-000.29,-000.23,-000.36,0000.04,-000.02,-000.11,26.3,00.0,0634.2,34.6
2016-12-14T00:54:00Z,0000380,01000600,0000.47,0001.09,-000.11,-000.44,0000.06,0000.18,-000.21,-000.16,-000.20,26.3,00.0,0634.2,34.6
2016-12-14T00:55:00Z,0000380,01000600,0000.29,0000.21,-000.11,-000.16,-000.21,-000.21,0000.15,0000.02,0000.09,26.3,00.0,0634.2,34.6
2016-12-14T00:56:00Z,0000380,01000600,0001.15,0000.78,-000.11,-000.08,0000.03,0000.05,0000.06,-000.00,0000.20,26.3,00.0,0634.2,34.6
2016-12-14T00:57:00Z,0000380,41000600,,,,,,,,,,26.3,00.0,0634.2,34.6
2016-12-14T00:58:00Z,0000380,61000600,,,,,,,,,,26.3,00.0,0633.2,34.7
2016-12-14T00:59:00Z,0000380,21000600,,,,,,,,,,26.3,00.0,0633.2,34.7
2016-12-14T01:00:00Z,0000380,21000600,,,,,,,,,,26.4,00.0,0633.2,34.7
2016-12-14T01:01:00Z,0000380,21000600,,,,,,,,,,26.4,00.0,0633.2,34.7
2016-12-14T01:02:00Z,0000380,21000600,,,,,,,,,,26.4,00.0,0633.2,34.7
2016-12-14T01:03:00Z,0000380,61000600,,,,,,,,,,26.4,00.0,0633.2,34.7
2016-12-14T01:04:00Z,0000380,41000600,0001.02,0000.25,-000.10,-000.14,-000.43,0000.16,-000.05,0000.17,-000.03,26.4,00.0,0634.2,34.7
2016-12-14T01:05:00Z,0000380,01000600,0000.21,0000.11,0000.08,-000.23,-000.00,0000.07,0000.05,-000.05,-000.01,26.4,00.0,0634.3,34.6
2016-12-14T01:06:00Z,0000380,01000600,0000.84,0000.85,-000.21,-000.55,0000.23,-000.05,0000.05,0000.11,-000.16,26.4,00.0,0634.3,34.6
2016-12-14T01:07:00Z,0000380,01000600,0000.25,0000.53,-000.12,0000.19,0000.02,0000.06,0000.12,-000.12,-000.02,26.4,00.0,0634.3,34.6
2016-12-14T01:08:00Z,0000380,01000600,0000.23,0000.47,-000.60,0000.25,0000.32,-000.47,-000.08,0000.06,0000.15,26.4,00.0,0634.3,34.6
2016-12-14T01:09:00Z,0000380,01000600,0001.58,0000.51,0000.58,0000.17,0000.26,0000.27,0000.13,0000.14,0000.32,26.4,00.0,0634.3,34.6
2016-12-14T01:10:00Z,0000380,01000600,0001.11,0000.03,-000.27,0000.14,0000.41,-000.05,-000.12,-000.17,-000.37,26.4,00.0,0634.2,34.6
2016-12-14T01:11:00Z,0000380,01000600,0000.74,0000.42,0000.03,0000.79,-000.09,-000.06,0000.04,0000.06,0000.19,26.4,00.0,0634.2,34.7
2016-12-14T01:12:00Z,0000380,01000600,0000.91,0000.17,0000.54,0000.20,-000.16,-000.33,-000.01,-000.17,-000.20,26.4,00.0,0634.3,34.7
2016-12-14T01:13:00Z,0000380,01000600,0000.08,0000.45,-000.12,0000.26,0000.38,-000.28,-000.09,0000.19,0000.16,26.4,00.0,0634.3,34.7
2016-12-14T01:14:00Z,0000380,01000600,-000.21,0000.06,0000.24,0000.09,0000.27,0000.08,0000.16,0000.05,0000.17,26.4,00.0,0634.3,34.7
2016-12-14T01:15:00Z,0000380,01000600,0000.77,0000.22,0000.28,0000.06,0000.25,0000.22,-000.28,-000.00,-000.33,26.5,00.0,0634.3,34.7
2016-12-14T01:16:00Z,0000380,01000600,0000.11,0000.05,-000.11,0000.22,0000.08,-000.21,0000.18,0000.14,0000.47,26.5,00.0,0634.3,34.7
2016-12-14T01:17:00Z,0000380,01000600,0000.73,0000.08,0000.18,-000.15,0000.14,-000.08,0000.20,0000.02,0000.13,26.5,00.0,0634.3,34.7
2016-12-14T01:18:00Z,0000380,01000600,0000.65,0000.61,0000.10,0000.22,-000.01,-000.08,-000.14,-000.23,-000.20,26.5,00.0,0634.4,34.7
2016-12-14T01:19:00Z,0000380,01000600,-000.21,-000.38,-000.31,-000.62,0000.23,-000.08,0000.06,0000.10,-000.36,26.5,00.0,0634.3,34.7
2016-12-14T01:20:00Z,0000380,01000600,0000.54,0000.36,-000.59,0000.01,0000.00,-000.07,0000.02,0000.26,0000.30,26.4,00.0,0634.3,34.6
2016-12-14T01:21:00Z,0000380,01000600,-000.74,0000.29,-000.08,0000.26,0000.29,-000.19,-000.16,-000.33,-000.21,26.4,00.0,0634.3,34.6
2016-12-14T01:22:00Z,0000380,01000600,0000.68,-000.19,0000.15,0000.25,0000.64,0000.30,0000.41,0000.18,-000.03,26.4,00.0,0634.4,34.6
2016-12-14T01:23:00Z,0000380,01000600,0000.45,0000.27,0000.18,0000.30,0000.41,0000.03,-000.29,0000.02,0000.25,26.4,00.0,0634.4,34.6
2016-12-14T01:24:00Z,0000380,01000600,0000.25,-000.13,0000.31,0000.58,0000.24,-000.35,0000.05,-000.06,0000.07,26.4,00.0,0634.4,34.6
2016-12-14T01:25:00Z,0000380,01000600,0000.68,0000.81,0000.04,-000.65,0000.12,0000.15,-000.11,-000.12,-000.15,26.4,00.0,0634.4,34.6
2016-12-14T01:26:00Z,0000380,01000600,0000.58,0000.11,0000.10,0000.22,0000.28,0000.06,0000.14,0000.04,-000.07,26.4,00.0,0634.4,34.7
2016-12-14T01:27:00Z,0000380,01000600,0000.79,0000.68,-000.24,0000.66,0000.73,-000.18,-000.12,0000.12,0000.15,26.4,00.0,0634.4,34.7
2016-12-14T01:28:00Z,0000380,01000600,-000.11,0000.83,-000.21,0000.53,0000.30,0000.17,0000.08,0000.13,0000.09,26.4,00.0,0634.5,34.7
2016-12-14T01:29:00Z,0000380,01000600,0000.47,-000.06,0000.23,0000.24,-000.06,0000.06,0000.02,-000.14,0000.11,26.4,00.0,0634.5,34.7
2016-12-14T01:30:00Z,0000380,01000600,0000.51,0000.42,-000.23,0000.43,0000.57,0000.09,-000.15,0000.07,-000.12,26.4,00.0,0634.5,34.7
2016-12-14T01:31:00Z,0000380,01000600,-000.27,0000.80,-000.08,-000.17,-000.24,-000.17,0000.05,-000.01,0000.14,26.4,00.0,0634.5,34.7
2016-12-14T01:32:00Z,0000380,01000600,0000.35,-000.32,-000.25,-000.34,0000.30,0000.34,0000.04,0000.01,-000.21,26.4,00.0,0634.5,34.6
2016-12-14T01:33:00Z,0000380,01000600,-000.08,-000.05,-000.45,-000.15,0000.08,-000.14,0000.16,-000.06,0000.20,26.4,00.0,0634.5,34.6
2016-12-14T01:34:00Z,0000380,01000600,0001.06,-000.41,0000.49,0000.49,-000.39,-000.18,-000.01,0000.05,-000.26,26.4,00.0,0634.6,34.6
2016-12-14T01:35:00Z,0000380,01000600,0000.10,0000.24,-000.14,-000.49,-000.09,0000.32,-000.23,-000.01,-000.13,26.3,00.0,0634.6,34.6
2016-12-14T01:36:00Z,0000380,01000600,-000.44,0000.10,-000.31,0000.27,0000.19,-000.08,0000.20,-000.13,0000.23,26.3,00.0,0634.6,34.6
2016-12-14T01:37:00Z,0000380,01000600,0000.38,0000.02,-000.37,0000.38,0000.41,-000.36,-000.18,0000.23,0000.03,26.3,00.0,0634.6,34.6
2016-12-14T01:38:00Z,0000380,01000600,0000.61,-000.01,0000.08,0000.02,0000.06,0000.02,0000.34,-000.10,0000.03,26.3,00.0,0634.6,34.6
2016-12-14T01:39:00Z,0000380,01000600,0000.55,0000.08,-000.05,-000.03,0000.22,0000.27,-000.05,0000.21,-000.09,26.3,00.0,0634.6,34.6
2016-12-14T01:40:00Z,0000380,01000600,0000.39,0000.51,0000.03,0000.89,0000.29,0000.08,0000.11,-000.09,0000.11,26.3,00.0,0634.6,34.6
2016-12-14T01:41:00Z,0000380,01000600,0001.23,0000.25,-000.23,0000.35,0000.40,0000.07,-000.12,-000.04,0000.10,26.3,00.0,0634.6,34.6
2016-12-14T01:42:00Z,0000380,01000600,0000.38,0000.14,-000.01,0000.14,0000.15,0000.03,0000.09,0000.05,0000.11,26.3,00.0,0634.5,34.6
2016-12-14T01:43:00Z,0000380,01000600,0000.09,-000.11,-000.16,-000.19,0000.23,0000.06,-000.11,0000.14,-000.20,26.3,00.0,0634.5,34.7
2016-12-14T01:44:00Z,0000380,01000600,-000.02,-000.10,0000.12,0000.20,0000.15,0000.03,0000.12,-000.08,0000.00,26.4,00.0,0634.5,34.7
2016-12-14T01:45:00Z,0000380,01000600,0000.50,0000.09,0000.18,0000.15,0000.22,0000.17,0000.07,0000.06,0000.23,26.3,00.0,0634.5,34.6
2016-12-14T01:46:00Z,0000380,01000600,-000.39,-000.01,0000.55,-000.24,-000.27,0000.05,0000.02,0000.06,0000.23,26.3,00.0,0634.5,34.6
2016-12-14T01:47:00Z,0000380,01000600,0000.40,0000.50,-000.18,0000.19,-000.47,0000.02,-000.16,0000.02,0000.02,26.3,00.0,0634.5,34.6
2016-12-14T01:48:00Z,0000380,01000600,-000.31,0000.43,0000.17,0000.20,-000.04,0000.38,0000.34,-000.08,-000.40,26.3,00.0,0634.5,34.6
2016-12-14T01:49:00Z,0000380,01000600,0001.15,0000.22,-000.03,0000.35,0000.01,0000.54,-000.03,0000.06,0000.15,26.3,00.0,0634.5,34.6
2016-12-14T01:50:00Z,0000380,01000600,0000.05,0000.49,0000.31,0000.00,0000.17,0000.05,-000.05,-000.01,-000.17,26.2,00.0,0634.5,34.6
2016-12-14T01:51:00Z,0000380,01000600,0001.75,0000.75,-000.12,-000.03,0000.16,-000.23,0000.04,0000.11,0000.19,26.2,00.0,0634.5,34.6
2016-12-14T01:52:00Z,0000380,01000600,0000.90,0000.21,0000.06,0000.16,0000.15,-000.10,0000.27,-000.05,0000.08,26.2,00.0,0634.4,34.6
2016-12-14T01:53:00Z,0000380,01000600,0000.30,0000.25,0000.22,0000.06,-000.08,0000.28,0000.01,0000.17,-000.01,26.2,00.0,0634.4,34.6
2016-12-14T01:54:00Z,0000380,01000600,0000.46,0000.78,-000.68,0000.37,0000.42,-000.05,-000.02,-000.02,0000.03,26.2,00.0,0634.4,34.6
2016-12-14T01:55:00Z,0000380,01000600,-000.21,0000.52,0000.18,-000.89,0000.58,0000.21,-000.16,-000.17,-000.24,26.2,00.0,0634.4,34.6
2016-12-14T01:56:00Z,0000380,01000600,0000.26,0000.32,-000.41,0000.46,0000.04,0000.34,0000.17,0000.08,0000.30,26.2,00.0,0634.4,34.6
2016-12-14T01:57:00Z,0000380,41000600,,,,,,,,,,26.2,00.0,0634.3,34.6
2016-12-14T01:58:00Z,0000380,61000600,,,,,,,,,,26.2,00.0,0633.4,34.6
2016-12-14T01:59:00Z,0000380,21000600,,,,,,,,,,26.2,00.0,0633.3,34.6
2016-12-14T02:00:00Z,0000380,21000600,,,,,,,,,,26.2,00.0,0633.3,34.7
2016-12-14T02:01:00Z,0000380,21000600,,,,,,,,,,26.2,00.0,0633.3,34.7
2016-12-14T02:02:00Z,0000380,21000600,,,,,,,,,,26.2,00.0,0633.3,34.7
2016-12-14T02:03:00Z,0000380,61000600,,,,,,,,,,26.2,00.0,0633.3,34.6
2016-12-14T02:04:00Z,0000380,41000600,-000.43,-000.39,0000.34,0000.44,-000.03,0000.23,-000.09,0000.07,-000.33,26.2,00.0,0634.2,34.6
2016-12-14T02:05:00Z,0000380,01000600,-001.32,0000.62,-000.08,0000.19,0000.07,0000.12,0000.08,0000.06,0000.01,26.2,00.0,0634.2,34.6
2016-12-14T02:06:00Z,0000380,01000600,-001.12,0000.05,0000.03,0000.24,-000.39,0000.47,0000.06,0000.03,0000.08,26.2,00.0,0634.2,34.6
2016-12-14T02:07:00Z,0000380,01000600,0000.06,0000.50,-000.22,-000.60,0000.51,0000.04,0000.33,0000.00,0000.18,26.2,00.0,0634.1,34.6
2016-12-14T02:08:00Z,0000380,01000600,0000.65,-000.18,0000.34,0000.63,0000.39,0000.15,-000.10,0000.13,-000.46,26.2,00.0,0634.1,34.6
2016-12-14T02:09:00Z,0000380,01000600,0000.92,0000.26,0000.09,-000.75,-000.20,-000.01,0000.01,-000.09,0000.48,26.1,00.0,0634.1,34.6
2016-12-14T02:10:00Z,0000380,01000600,-000.75,-000.23,0000.16,-000.06,-000.08,0000.35,0000.12,0000.19,-000.01,26.1,00.0,0634.0,34.6
2016-12-14T02:11:00Z,0000380,01000600,-000.36,0000.32,0000.11,-000.42,-000.06,0000.29,0000.06,-000.10,0000.03,26.1,00.0,0634.0,34.6
2016-12-14T02:12:00Z,0000380,01000600,0000.89,0000.48,0000.24,-000.05,0000.43,0000.55,0000.20,0000.14,-000.09,26.2,00.0,0634.0,34.6
2016-12-14T02:13:00Z,0000380,01000600,-000.73,0000.02,0000.16,0000.03,0000.17,0000.20,-000.02,0000.08,0000.14,26.2,00.0,0633.9,34.7
2016-12-14T02:14:00Z,0000380,01000600,0001.18,0000.93,-000.06,-000.40,0000.77,0000.10,-000.11,0000.07,-000.12,26.2,00.0,0633.8,34.7
2016-12-14T02:15:00Z,0000380,01000600,0000.58,-000.16,0000.18,-000.04,0000.16,0000.56,0000.25,-000.11,0000.44,26.2,00.0,0633.7,34.7
2016-12-14T02:16:00Z,0000380,01000600,-000.92,-000.10,0000.62,0000.37,-000.27,0000.42,0000.01,0000.17,-000.29,26.3,00.0,0633.6,34.7
2016-12-14T02:17:00Z,0000380,01000600,-000.10,0000.32,0000.02,-000.31,0000.02,0000.11,0000.33,0000.03,0000.04,26.3,00.0,0633.5,34.7
2016-12-14T02:18:00Z,0000380,01000600,-000.62,0000.04,0000.17,0000.24,-000.30,0000.41,-000.28,0000.22,0000.25,26.3,00.0,0633.5,34.7
2016-12-14T02:19:00Z,0000380,01000600,0000.37,0000.19,0000.01,-000.12,-000.43,-000.03,0000.24,0000.07,-000.04,26.3,00.0,0633.4,34.7
2016-12-14T02:20:00Z,0000380,01000600,0000.47,-000.05,0000.43,0000.35,0000.23,0000.08,0000.01,-000.11,0000.06,26.3,00.0,0633.3,34.6
2016-12-14T02:21:00Z,0000380,01000600,0000.04,0000.17,-000.11,0000.34,0000.35,0000.23,-000.02,-000.05,0000.03,26.3,00.0,0633.3,34.6
2016-12-14T02:22:00Z,0000380,01000600,0000.27,-000.06,0000.03,-000.12,0000.10,-000.08,0000.10,0000.10,-000.18,26.3,00.0,0633.3,34.6
2016-12-14T02:23:00Z,0000380,01000600,-000.53,0000.17,0000.49,-000.10,-000.14,0000.61,-000.06,0000.19,0000.07,26.3,00.0,0633.3,34.6
2016-12-14T02:24:00Z,0000380,01000600,-000.71,-000.19,0000.07,-000.30,0000.62,0000.26,0000.02,-000.19,0000.05,26.3,00.0,0633.3,34.6
2016-12-14T02:25:00Z,0000380,01000600,-000.15,-000.09,0000.03,-000.42,-000.35,0000.19,-000.01,-000.01,-000.14,26.2,00.0,0633.3,34.6
2016-12-14T02:26:00Z,0000380,01000600,-000.83,0000.90,0000.57,-000.00,0000.30,0000.81,0000.26,0000.04,0000.49,26.3,00.0,0633.3,34.7
2016-12-14T02:27:00Z,0000380,01000600,0000.64,0000.37,0000.04,-000.04,0000.22,0000.07,-000.08,0000.15,-000.34,26.3,00.0,0633.2,34.7
2016-12-14T02:28:00Z,0000380,01000600,0000.31,-000.21,0000.13,-000.12,0000.47,0000.16,-000.01,-000.01,0000.16,26.3,00.0,0633.2,34.7
2016-12-14T02:29:00Z,0000380,01000600,-000.49,0000.37,0000.37,-000.21,0000.09,0000.49,0000.23,-000.02,0000.21,26.3,00.0,0633.2,34.7
2016-12-14T02:30:00Z,0000380,01000600,-000.69,0000.18,-000.18,-000.24,-000.03,0000.47,-000.23,0000.18,-000.07,26.3,00.0,0633.3,34.7
2016-12-14T02:31:00Z,0000380,01000600,-000.42,0000.40,0000.13,-000.08,0000.34,0000.50,0000.30,-000.09,-000.22,26.4,00.0,0633.3,34.7
2016-12-14T02:32:00Z,0000380,01000600,0000.35,-000.16,-000.09,-000.36,-000.20,0000.15,-000.26,0000.17,0000.27,26.4,00.0,0633.3,34.7
2016-12-14T02:33:00Z,0000380,01000600,-000.69,-000.31,0000.43,-000.07,0000.18,0000.11,0000.12,-000.08,-000.08,26.4,00.0,0633.3,34.7
2016-12-14T02:34:00Z,0000380,01000600,0001.07,-000.15,-000.52,0000.16,-000.28,0000.31,0000.04,-000.04,0000.32,26.4,00.0,0633.3,34.7
2016-12-14T02:35:00Z,0000380,01000600,0000.26,-000.45,0000.18,0000.03,-000.27,0000.20,0000.18,0000.07,-000.14,26.4,00.0,0633.4,34.6
2016-12-14T02:36:00Z,0000380,01000600,-001.83,-000.63,0000.40,0000.60,-000.06,0000.57,-000.31,0000.03,0000.03,26.4,00.0,0633.4,34.6
2016-12-14T02:37:00Z,0000380,01000600,0000.79,0000.43,-000.00,-000.55,-000.27,0000.12,0000.23,0000.03,0000.16,26.3,00.0,0633.4,34.6
2016-12-14T02:38:00Z,0000380,01000600,0000.01,0000.33,-000.27,0000.20,-000.00,-000.01,0000.18,0000.04,-000.18,26.3,00.0,0633.4,34.6
2016-12-14T02:39:00Z,0000380,01000600,0000.69,0000.18,0000.01,0000.32,-000.09,0000.59,0000.07,-000.01,-000.03,26.3,00.0,0633.4,34.6
2016-12-14T02:40:00Z,0000380,01000600,-001.25,-000.08,0000.44,-000.06,0000.10,0000.42,-000.11,-000.01,-000.50,26.4,00.0,0633.4,34.6
2016-12-14T02:41:00Z,0000380,01000600,-000.49,0000.19,-000.02,-000.42,-000.29,0000.65,0000.03,0000.03,0000.57,26.4,00.0,0633.4,34.7
2016-12-14T02:42:00Z,0000380,01000600,0000.40,-000.57,0000.08,0000.06,0000.19,0000.57,0000.12,-000.06,0000.13,26.4,00.0,0633.3,34.7
2016-12-14T02:43:00Z,0000380,01000600,0000.32,-000.35,0000.03,0000.28,-000.32,-000.20,0000.01,0000.14,-000.27,26.4,00.0,0633.4,34.7
2016-12-14T02:44:00Z,0000380,01000600,0000.57,0000.08,0000.41,0000.28,0000.22,0000.18,0000.13,0000.07,0000.02,26.4,00.0,0633.3,34.7
2016-12-14T02:45:00Z,0000380,01000600,0000.06,-000.02,0000.58,0000.14,0000.18,0000.26,-000.10,-000.02,0000.19,26.4,00.0,0633.3,34.7
2016-12-14T02:46:00Z,0000380,01000600,-000.05,0000.40,0000.19,0000.54,0000.50,0000.42,-000.10,0000.10,-000.31,26.5,00.0,0633.4,34.7
2016-12-14T02:47:00Z,0000380,01000600,-000.43,-000.16,0000.26,0000.78,0000.36,0000.63,-000.00,0000.11,0000.56,26.4,00.0,0633.3,34.7
2016-12-14T02:48:00Z,0000380,01000600,-000.80,0000.23,0000.35,0000.39,-000.23,0000.35,-000.08,-000.00,-000.35,26.4,00.0,0633.4,34.7
2016-12-14T02:49:00Z,0000380,01000600,-000.54,-000.11,0000.01,-000.05,0000.25,-000.10,0000.18,-000.09,-000.01,26.4,00.0,0633.4,34.6
2016-12-14T02:50:00Z,0000380,01000600,-000.63,0000.17,0000.39,0000.21,0000.53,0000.53,0000.10,0000.05,0000.12,26.4,00.0,0633.4,34.6
2016-12-14T02:51:00Z,0000380,01000600,-000.70,0000.11,-000.22,0000.63,0000.10,0000.45,-000.14,-000.08,0000.29,26.4,00.0,0633.4,34.6
2016-12-14T02:52:00Z,0000380,01000600,-001.30,0000.74,0000.79,0000.46,0000.43,0000.42,0000.28,0000.23,-000.14,26.3,00.0,0633.4,34.6
2016-12-14T02:53:00Z,0000380,01000600,-000.46,0000.78,0000.52,-000.38,-000.13,0000.02,-000.03,-000.11,-000.08,26.3,00.0,0633.4,34.6
2016-12-14T02:54:00Z,0000380,01000600,0000.38,0000.59,-000.03,-000.04,0000.24,0000.54,0000.18,0000.01,-000.10,26.3,00.0,0633.4,34.6
2016-12-14T02:55:00Z,0000380,01000600,0001.44,0000.24,-000.06,0000.85,0000.40,-000.11,-000.06,0000.03,0000.04,26.3,00.0,0633.3,34.6
2016-12-14T02:56:00Z,0000380,01000600,-000.72,-000.58,0000.28,-000.24,0000.12,0000.54,-000.05,0000.07,0000.17,26.3,00.0,0633.3,34.6
2016-12-14T02:57:00Z,0000380,41000600,,,,,,,,,,26.4,00.0,0633.4,34.7
2016-12-14T02:58:00Z,0000380,61000600,,,,,,,,,,26.3,00.0,0632.3,34.7
2016-12-14T02:59:00Z,0000380,21000600,,,,,,,,,,26.3,00.0,0632.3,34.7
2016-12-14T03:00:00Z,0000380,21000600,,,,,,,,,,26.4,00.0,0632.3,34.7
2016-12-14T03:01:00Z,0000380,21000600,,,,,,,,,,26.4,00.0,0632.2,34.7
2016-12-14T03:02:00Z,0000380,21000600,,,,,,,,,,26.4,00.0,0632.2,34.7
2016-12-14T03:03:00Z,0000380,61000600,,,,,,,,,,26.4,00.0,0632.2,34.7
2016-12-14T03:04:00Z,0000380,41000600,-000.91,0000.42,0000.14,-000.22,-000.03,0000.11,-000.10,-000.05,-000.12,26.4,00.0,0633.1,34.7
2016-12-14T03:05:00Z,0000380,01000600,0000.77,0000.32,0000.09,-000.27,-000.06,0000.04,-000.09,0000.05,0000.36,26.4,00.0,0633.2,34.7
2016-12-14T03:06:00Z,0000380,01000600,-000.38,-000.19,0000.27,-000.62,-000.07,-000.30,-000.00,0000.06,-000.13,26.4,00.0,0633.2,34.6
2016-12-14T03:07:00Z,0000380,01000600,0000.56,0000.50,0000.36,-000.47,-000.09,-000.32,0000.19,-000.07,-000.08,26.4,00.0,0633.2,34.6
2016-12-14T03:08:00Z,0000380,01000600,0000.08,0000.70,-000.22,-000.35,-000.13,-000.47,0000.02,-000.01,0000.20,26.4,00.0,0633.3,34.6
2016-12-14T03:09:00Z,0000380,01000600,0001.56,-000.09,-000.44,0000.17,-000.35,-000.52,-000.10,-000.09,-000.01,26.3,00.0,0633.3,34.6
2016-12-14T03:10:00Z,0000380,01000600,0000.18,0000.51,-000.16,-000.13,-000.37,-000.26,-000.06,0000.05,-000.20,26.3,00.0,0633.2,34.6
2016-12-14T03:11:00Z,0000380,01000600,0000.82,-000.15,-000.06,-000.52,-000.06,-000.40,0000.31,0000.20,0000.45,26.4,00.0,0633.3,34.7